Location: Silverdale
(47.6506°N, 122.6941°W)
Time: 00:43:15
(UTC+00:00)

A-11 Canister half - Pass Details

Date: 08 October 2022
Orbit: 1524 x 1685 km, 47.3° (Epoch: 05 December)

Event Time Altitude Azimuth Distance (km) Brightness Sun altitude
Rises 03:53:54 0° 289° (WNW) 4,694 13.0 -23.5°
Reaches altitude 10° 03:57:01 10° 285° (WNW) 3,722 12.1 -24.0°
Maximum altitude 04:05:57 51° 214° (SSW) 1,913 9.5 -25.4°
Enters shadow 04:10:34 30° 157° (SSE) 2,545 9.7 -26.2°
